Tracking 17828 objects as of 30-July-2016
HD Live streaming from Space Station
objects crossing your sky now

COSMOS 2251 DEB

Track COSMOS 2251 DEB now!
10-day predictions


NORAD ID: 34131
Int'l Code: 1993-036LC
Perigee: 700.6 km
Apogee: 715.3 km
Inclination: 74.1 °
Period: 98.8 minutes
Semi major axis: 7078 km
RCS: 0.018 m2 (small)
Launch date: June 16, 1993
Source: Commonwealth of Independent States (former USSR) (CIS)
Launch site: PLESETSK MISSILE AND SPACE COMPLEX (PKMTR)

Note: This is SATELLITE DEBRIS
Your satellite tracking list
Your tracking list is empty





NASA's NSSDC Master Catalog

Two Line Element Set (TLE):
1 34131U 93036LC  16211.89585353  .00001709  00000-0  38083-3 0  9992
2 34131  74.1213  27.7301 0010333 124.4299 357.7909 14.57638068392791
Source of the keplerian elements: AFSPC

N2YO: 862